2022-096B (53371 NORAD) Tracking and Keplerian Element Data

This shows tracking and keplerian element data for the satellite.

Feedback or suggestion? Click here.




ElementValue
Catalog53371
Name2022-096B
Epoch Orbit746
Epoch Day270.16256712
Epoch Year2022
RAAN171.2548
Inclination97.4312
Eccentricity0.0002981
Argument of Perigee58.4714
Mean Anonmoly84.2348
Mean Motion15.24852347
Decay Rate6.536E-05
L11 53371U 22096B 22270.16256712 .00006536 00000+0 26594-3 0 9999
L22 53371 97.4312 171.2548 0002981 58.4714 84.2348 15.24852347 7461

Live tracking and technical data element details for 2022-096B (NORAD 53371). 2022-096B can be tracked NOW for your location showing map with azimuth and elevation plus other details from your city location.

Track the satellite on the map from your city or location and see movement details for azimuth, elevation, latitude, longitude, range, height, and movement on the map or in text.







IsCatalogInMostPopularTable: catalog: 53371, numindb: 6
Update: records affected: 1



GetName: 53371 2022-096B

Hit Count: updated at: Wed, 28 Sep 2022 23:06:40 GMT